Poplar Bluff, MO

7:24 PM CDT on April 19, 2018 (GMT -0500)
Poplar Bluff Municipal

Weather History for KPOF - April, 2013

Change the Weather History Date:

Thursday, April 25, 2013

  Actual Average Record
Temperature  
Mean Temperature 52 °F -  
Max Temperature 68 °F 72 °F 87 °F (1921)
Min Temperature 36 °F 47 °F 34 °F (1930)
Degree Days  
Heating Degree Days 13    
Growing Degree Days 2 (Base 50)    
Moisture  
Dew Point 39 °F    
Average Humidity 63    
Maximum Humidity 93    
Minimum Humidity 35    
Precipitation  
Precipitation 0.00 in - - ()
Sea Level Pressure  
Sea Level Pressure 30.32 in    
Wind  
Wind Speed 4 mph (South)    
Max Wind Speed 12 mph    
Max Gust Speed -    
Visibility 10 miles    
Events      
Averages and records for this station are not official NWS values.
T = Trace of Precipitation, MM = Missing Value Source: NWS Daily Summary

Daily Weather History Graph

Daily Weather History Graph

Search for Another Location

Airport or City:

Astronomy

Apr. 25, 2013 Rise Set
Actual Time 6:14 AM CDT 7:44 PM CDT
Civil Twilight 5:46 AM CDT 8:12 PM CDT
Nautical Twilight 5:13 AM CDT 8:45 PM CDT
Astronomical Twilight 4:39 AM CDT 9:19 PM CDT
Moon 7:57 PM CDT (4/25) 5:57 AM CDT (4/25)
Length of Visible Light 14h 25m
Length of Day
13h 30m
Full, 100% of the Moon is Illuminated
Apr 25
Full
Apr 25
Full
May 2
Last Quarter
May 9
New
May 17
First Quarter

Hourly Weather History & Observations

Time (CDT) Temp. Windchill Dew Point Humidity Pressure Visibility Wind Dir Wind Speed Gust Speed Precip Events Conditions
12:53 AM 45.0 °F 43.5 °F 39.0 °F 80% 30.29 in 10.0 mi SSW 3.5 mph - N/A   Clear
1:53 AM 43.0 °F - 39.9 °F 89% 30.29 in 10.0 mi Calm Calm - N/A   Clear
2:53 AM 41.0 °F - 37.9 °F 89% 30.29 in 9.0 mi Calm Calm - N/A   Clear
3:53 AM 39.0 °F - 37.0 °F 93% 30.31 in 9.0 mi Calm Calm - N/A   Clear
4:53 AM 37.9 °F - 34.0 °F 86% 30.30 in 10.0 mi Calm Calm - N/A   Clear
5:53 AM 36.0 °F - 33.1 °F 89% 30.32 in 10.0 mi Calm Calm - N/A   Clear
6:53 AM 37.0 °F - 35.1 °F 93% 30.34 in 9.0 mi Calm Calm - N/A   Clear
7:53 AM 43.0 °F 41.3 °F 37.0 °F 80% 30.36 in 10.0 mi SSW 3.5 mph - N/A   Clear
8:53 AM 48.0 °F - 37.9 °F 68% 30.37 in 10.0 mi SSW 3.5 mph - N/A   Clear
9:53 AM 52.0 °F - 36.0 °F 54% 30.38 in 10.0 mi South 3.5 mph - N/A   Clear
10:53 AM 55.9 °F - 39.0 °F 53% 30.37 in 10.0 mi SSW 4.6 mph - N/A   Clear
11:53 AM 60.1 °F - 39.9 °F 47% 30.36 in 10.0 mi SSW 6.9 mph - N/A   Clear
12:53 PM 63.0 °F - 42.1 °F 46% 30.34 in 10.0 mi SSW 9.2 mph - N/A   Clear
1:53 PM 64.9 °F - 41.0 °F 42% 30.33 in 10.0 mi South 10.4 mph - N/A   Clear
2:53 PM 66.9 °F - 41.0 °F 39% 30.31 in 10.0 mi SSW 10.4 mph - N/A   Clear
3:53 PM 66.9 °F - 41.0 °F 39% 30.29 in 10.0 mi South 11.5 mph - N/A   Clear
4:53 PM 68.0 °F - 39.0 °F 35% 30.28 in 10.0 mi South 11.5 mph - N/A   Clear
5:53 PM 66.9 °F - 39.9 °F 37% 30.28 in 10.0 mi South 10.4 mph - N/A   Clear
6:53 PM 64.9 °F - 41.0 °F 42% 30.27 in 10.0 mi South 8.1 mph - N/A   Clear
7:53 PM 61.0 °F - 43.0 °F 52% 30.28 in 10.0 mi South 5.8 mph - N/A   Clear
8:53 PM 55.9 °F - 44.1 °F 64% 30.30 in 10.0 mi SE 3.5 mph - N/A   Clear
9:53 PM 55.9 °F - 43.0 °F 62% 30.33 in 10.0 mi SSE 4.6 mph - N/A   Clear
10:53 PM 55.0 °F - 44.1 °F 67% 30.32 in 10.0 mi SSE 5.8 mph - N/A   Clear
11:53 PM 54.0 °F - 42.1 °F 64% 30.32 in 10.0 mi Calm Calm - N/A   Clear